Location: Newark
(42.9858°N, 0.6717°E)
Time: 03:45:07
(UTC+00:00)

Altair - All Passes

Search period start: 14 November 2019 00:00
Search period end: 24 November 2019 00:00
Orbit: 1502 x 1682 km, 47.2° (Epoch: 12 November)

Date Brightness Start Highest point End Pass type
(mag) Time Alt. Az. Time Alt. Az. Time Alt. Az.
14 Nov - 02:02:00 10° S 02:08:16 21° SE 02:14:33 10° E visible
14 Nov - 04:02:34 10° SW 04:11:35 65° SE 04:20:43 10° ENE visible
14 Nov - 06:07:07 10° W 06:16:19 73° N 06:25:47 10° ENE visible
14 Nov - 08:12:27 10° WNW 08:21:45 75° NNE 08:31:23 10° E daylight
14 Nov - 10:17:17 10° WNW 10:26:29 61° SW 10:36:02 10° SE daylight
14 Nov - 12:23:38 10° W 12:29:51 20° SW 12:36:13 10° SSW daylight
15 Nov - 01:37:29 10° SSE 01:43:16 19° SE 01:49:03 10° E visible
15 Nov - 03:37:31 10° SW 03:46:28 61° SE 03:55:31 10° ENE visible
15 Nov - 05:41:55 10° W 05:51:07 74° NNW 06:00:33 10° ENE visible
15 Nov - 07:47:16 10° WNW 07:56:33 73° NNE 08:06:09 10° E daylight
15 Nov - 09:52:07 10° WNW 10:01:21 65° SW 10:10:56 10° SE daylight
15 Nov - 11:58:10 10° W 12:04:49 22° SW 12:11:38 10° S daylight
16 Nov - 01:13:03 10° SSE 01:18:16 17° SE 01:23:28 10° E visible
16 Nov - 03:12:29 10° SW 03:21:22 57° SE 03:30:19 10° ENE visible
16 Nov - 05:16:43 10° W 05:25:56 76° NNW 05:35:19 10° ENE visible
16 Nov - 07:22:05 10° WNW 07:31:19 72° N 07:40:53 10° E daylight
16 Nov - 09:26:57 10° WNW 09:36:13 69° SSW 09:45:48 10° SE daylight
16 Nov - 11:32:44 10° W 11:39:46 24° SW 11:46:58 10° S daylight
17 Nov - 00:48:47 10° SSE 00:53:17 15° SE 00:57:45 10° E visible
17 Nov - 02:47:29 10° SW 02:56:17 53° SE 03:05:07 10° ENE visible
17 Nov - 04:51:31 10° WSW 05:00:44 78° NNW 05:10:06 10° ENE visible
17 Nov - 06:56:53 10° WNW 07:06:06 71° N 07:15:37 10° E daylight
17 Nov - 09:01:47 10° WNW 09:11:04 72° SSW 09:20:40 10° SE daylight
17 Nov - 11:07:22 10° WNW 11:14:43 26° SW 11:22:16 10° S daylight
18 Nov - 00:24:43 10° SSE 00:28:16 13° ESE 00:31:50 10° E visible
18 Nov - 02:22:30 10° SSW 02:31:12 49° SE 02:39:55 10° ENE visible
18 Nov - 04:26:20 10° WSW 04:35:32 81° NNW 04:44:54 10° ENE visible
18 Nov - 06:31:42 10° WNW 06:40:54 70° N 06:50:21 10° E daylight
18 Nov - 08:36:38 10° WNW 08:45:55 76° SSW 08:55:31 10° SE daylight
18 Nov - 10:42:02 10° WNW 10:49:39 29° SW 10:57:30 10° S daylight
19 Nov - 00:01:09 10° SE 00:03:18 11° ESE 00:05:26 10° ESE night (unlit)
19 Nov - 01:57:32 10° SSW 02:06:07 46° SE 02:14:42 10° ENE visible
19 Nov - 04:01:09 10° WSW 04:10:21 83° NNW 04:19:42 10° ENE visible
19 Nov - 06:06:30 10° W 06:15:41 69° N 06:25:05 10° E visible
19 Nov - 08:11:28 10° WNW 08:20:46 80° SSW 08:30:21 10° ESE daylight
19 Nov - 10:16:44 10° WNW 10:24:36 31° SW 10:32:42 10° S daylight
20 Nov - 01:32:35 10° SSW 01:41:03 43° SE 01:49:29 10° ENE visible
20 Nov - 03:35:59 10° WSW 03:45:12 86° NNW 03:54:30 10° ENE visible
20 Nov - 05:41:17 10° W 05:50:28 68° N 05:59:50 10° E visible
20 Nov - 07:46:19 10° WNW 07:55:36 84° SSW 08:05:11 10° ESE daylight
20 Nov - 09:51:28 10° WNW 09:59:32 34° SW 10:07:51 10° SSE daylight
21 Nov - 01:07:40 10° SSW 01:15:59 39° SE 01:24:15 10° ENE visible
21 Nov - 03:10:48 10° WSW 03:20:02 89° NNW 03:29:19 10° ENE visible
21 Nov - 05:16:06 10° W 05:25:15 68° N 05:34:35 10° E visible
21 Nov - 07:21:09 10° WNW 07:30:26 87° SSW 07:40:00 10° ESE daylight
21 Nov - 09:26:13 10° WNW 09:34:27 37° SW 09:42:57 10° SSE daylight
22 Nov - 00:42:47 10° SSW 00:50:56 36° SE 00:59:00 10° ENE visible
22 Nov - 02:45:39 10° WSW 02:54:52 87° SSE 03:04:08 10° ENE visible
22 Nov - 04:50:53 10° W 05:00:02 68° N 05:09:20 10° E visible
22 Nov - 06:56:00 10° WNW 07:05:16 90° NNE 07:14:48 10° ESE daylight
22 Nov - 09:00:59 10° WNW 09:09:23 40° SW 09:18:02 10° SSE daylight
23 Nov - 00:17:56 10° SSW 00:25:53 33° SE 00:33:44 10° ENE visible
23 Nov - 02:20:29 10° WSW 02:29:43 84° SSE 02:38:57 10° ENE visible
23 Nov - 04:25:40 10° W 04:34:49 68° N 04:44:06 10° E visible
23 Nov - 06:30:50 10° WNW 06:40:06 87° NNE 06:49:35 10° ESE visible
23 Nov - 08:35:46 10° WNW 08:44:18 43° SW 08:53:05 10° SSE daylight
